Regional Weather Roundup
Issued by NWS

Home | Current Version | Previous Version | Text Only | Print | Product List | Glossary On
Versions: 1 2 3 4 5 6 7 8 9 10 11 12 13 14 15 16 17 18 19 20 21 22 23 24 25 26 27 28 29 30 31 32 33 34 35 36 37 38 39 40 41 42 43 44 45 46 47 48 49 50
048
ASUS43 KDMX 271506
RWRIA

WEATHER ROUNDUP FOR IOWA
NATIONAL WEATHER SERVICE DES MOINES IA
1000 AM CDT MON MAR 27 2017

NOTE: "FAIR" INDICATES FEW OR NO CLOUDS BELOW 12,000 FEET WITH NO
SIGNIFICANT WEATHER AND/OR OBSTRUCTIONS TO VISIBILITY.

* - THESE STATIONS ARE NOT NWS STATIONS...THUS NOT UNDER NWS
QUALITY CONTROL.  THEY ALSO DO NOT REPORT WEATHER SUCH
AS PRECIPITATION OR FOG.

IAZ001>003-012>014-020>022-031>034-043>046-271600-
   NORTHWEST IOWA

CITY           SKY/WX    TMP DP  RH WIND       PRES   REMARKS
CARROLL *      CLOUDY    45  43  93 NE10      29.96R
CHEROKEE *     CLOUDY    44  41  88 N5        29.98R
LE MARS *      MOSUNNY   46  39  76 N7        29.99R
ORANGE CITY *  CLOUDY    45  39  81 NE5       29.98R
SHELDON *      CLOUDY    43  43 100 N6        29.96S
SIOUX CITY     CLOUDY    46  40  79 NE5       29.98S
SPENCER        CLOUDY    43  39  86 N7        29.97R
STORM LAKE *   MOSUNNY   45  41  87 N12       29.96R
$$

IAZ055>058-069>071-079>083-090>094-271600-
   SOUTHWEST IOWA

CITY           SKY/WX    TMP DP  RH WIND       PRES   REMARKS
ATLANTIC *     CLOUDY    45  41  87 N14       29.95R
AUDUBON *      CLOUDY    43  39  87 N8        29.97R
CLARINDA *     PTSUNNY   46  43  87 NE10      29.96R
COUNCIL BLFS * CLOUDY    45  45 100 N8        29.97R
CRESTON *      CLOUDY    43  41  93 NE12      29.93R
HARLAN  *      CLOUDY    43  43 100 N7        30.00R
LAMONI         CLOUDY    46  43  89 NE13      29.90S
RED OAK *      CLOUDY    45  41  87 N12       29.96R
SHENANDOAH *   CLOUDY    46  41  81 N12       29.97R
$$

IAZ047>049-059>061-072>074-084-271600-
   CENTRAL IOWA

CITY           SKY/WX    TMP DP  RH WIND       PRES   REMARKS
AMES           CLOUDY    44  41  89 N8        29.94R
ANKENY *       CLOUDY    45  41  87 VRB6      29.94S
BOONE *        CLOUDY    43  43 100 N10       29.93S
CHARITON *     CLOUDY    45  43  93 NE9       29.91S FOG
DES MOINES     CLOUDY    46  41  82 NE10      29.92F
GRINNELL*      CLOUDY    44  42  91 NE7       29.93S
KNOXVILLE *    CLOUDY    45  45 100 E8        29.91S FOG
MARSHALLTOWN   CLOUDY    43  42  97 NE7       29.92S FOG
NEWTON *       CLOUDY    45  43  93 NE6       29.91S
PELLA *        CLOUDY    45  45  98 NE5       29.94R FOG
PERRY *        CLOUDY    43  40  89 N9        29.94S
$$

IAZ004>006-015-016-023>025-035-036-271600-
   NORTH CENTRAL IOWA

CITY           SKY/WX    TMP DP  RH WIND       PRES   REMARKS
ALGONA *       CLOUDY    41  39  93 N10       29.96R
CLARION *      CLOUDY    41  41 100 N12       29.95R
ESTHERVILLE    CLOUDY    41  38  89 NE9       29.96R
FORT DODGE *   CLOUDY    43  37  81 N10       29.96R
MASON CITY     CLOUDY    41  38  89 N9        29.96R
FOREST CITY *  CLOUDY    39  39 100 NW8       29.95S WCI  34
WEBSTER CITY * CLOUDY    43  39  87 N10       29.94R
IOWA FALLS *   CLOUDY    43  40  90 N6        29.94S
$$

IAZ007>011-017>019-026>030-037>042-050>054-066-271600-
   NORTHEAST IOWA

CITY           SKY/WX    TMP DP  RH WIND       PRES   REMARKS
CEDAR RAPIDS   CLOUDY    45  44  97 N6        29.92R
CHARLES CITY * CLOUDY    41  41 100 N6        29.94R
CLINTON *      CLOUDY    47  44  90 NE7       29.93F
DECORAH *      CLOUDY    41  41 100 CALM      29.92S
DUBUQUE        CLOUDY    44  41  89 NE8       29.92S
MONTICELLO *   CLOUDY    45  41  87 NE7       29.92S
OELWEIN *      CLOUDY    43  43 100 N8        29.93S
WATERLOO       CLOUDY    43  40  89 N8        29.93S
$$

IAZ064-065-067-068-078-271600-
   EAST CENTRAL IOWA

CITY           SKY/WX    TMP DP  RH WIND       PRES   REMARKS
DAVENPORT      CLOUDY    48  45  89 NE6       29.93S
IOWA CITY      CLOUDY    48  43  82 NE5       29.94S
MUSCATINE *    CLOUDY    48  46  93 NE6       29.94S FOG
QUAD CITIES    CLOUDY    49  45  86 NE5       29.93R
$$

IAZ062-063-075>077-085>089-095>099-271600-
   SOUTHEAST IOWA

CITY           SKY/WX    TMP DP  RH WIND       PRES   REMARKS
BURLINGTON     CLOUDY    48  47  96 NE6       29.92S FOG
FAIRFIELD *    CLOUDY    46  46 100 NE7       29.93R FOG
FORT MADISON * RAIN      48  46  93 NE3       29.93S
KEOKUK *       LGT RAIN  48  46  93 NE5       29.92S
OSKALOOSA *    CLOUDY    45  44  98 NE7       29.93R
OTTUMWA        CLOUDY    47  45  93 NE8       29.93R
WASHINGTON *   CLOUDY    46  46 100 E7        29.94S FOG
$$

ABBREVIATIONS USED IN REMARKS
   TC - TEMPERATURES IN CELSIUS
  WCI - WIND CHILL INDEX
   HX - HEAT INDEX
  VSB - VISIBILITY
$$





USA.gov is the U.S. government's official web portal to all federal, state and local government web resources and services.